Theta_e
341 340 340 340 340 340 339 338 338 338 338 337 338 338 337 339 342 342 342 341 338 335 334 333 332 331 330 331 331 332 333 333 334 335 334 334 334 334 334 334 334 333 332 331 330 330 329 325 320 317 317 317 318 319 319 318 317 316 317 317 317 317 317 318 319 320 322 324 325 326 327 329 334 338
341 340 339 340 340 339 340 339 339 339 339 339 339 339 338 338 340 341 342 341 338 336 335 333 333 332 331 332 332 332 333 333 334 335 335 334 334 334 335 335 334 333 332 332 331 330 328 326 324 322 320 319 320 321 320 320 318 317 316 316 316 316 317 317 317 318 319 320 322 324 325 326 327 331
340 340 339 339 339 340 340 340 339 339 339 339 340 340 339 338 338 339 340 341 339 336 335 334 333 333 332 332 332 333 333 334 334 334 334 334 334 334 334 333 333 333 332 332 331 331 330 329 329 328 326 325 325 325 323 322 321 319 317 316 316 316 316 316 317 317 317 318 319 320 323 325 326 327
339 339 339 339 339 340 340 340 340 339 338 339 340 341 340 339 339 338 339 341 340 337 336 335 334 333 333 332 332 332 333 333 334 333 333 333 333 333 333 332 332 332 332 331 331 331 331 330 330 330 328 328 328 328 327 325 323 321 319 317 316 316 317 316 317 316 317 317 317 318 319 321 323 325
339 339 339 339 339 339 340 340 340 340 339 339 339 340 340 339 339 338 339 340 339 338 336 335 334 334 334 333 332 332 332 333 333 333 333 333 332 332 332 331 331 330 330 330 331 330 330 330 330 329 329 328 328 328 327 326 324 322 321 319 317 317 317 317 317 317 317 317 317 317 317 318 319 321
339 339 338 339 340 339 339 339 339 339 339 339 339 339 338 338 337 337 337 337 338 337 336 335 335 334 334 334 333 333 332 332 332 332 332 331 331 331 331 330 329 329 329 329 329 329 329 329 329 328 328 328 327 328 327 326 325 323 322 321 319 318 317 317 317 317 318 318 318 318 317 318 318 318
339 339 339 339 340 339 339 339 339 339 339 339 339 338 337 337 336 335 335 335 336 336 336 335 335 335 334 334 333 333 333 332 331 331 331 330 330 330 330 329 328 328 328 328 328 328 328 328 328 327 327 327 327 328 328 328 327 325 323 322 321 320 318 318 317 317 318 318 318 318 318 318 318 318
340 339 340 340 340 340 340 339 339 339 338 338 338 339 338 337 336 336 335 335 335 335 336 335 335 335 334 334 334 333 333 332 331 331 330 329 329 329 329 329 329 329 328 328 327 327 327 327 327 327 327 327 328 328 328 327 327 326 325 324 323 322 321 321 319 319 319 319 319 319 319 318 318 318
340 340 340 340 340 340 340 339 339 339 339 338 339 339 338 338 337 337 336 336 335 335 335 335 334 334 334 333 334 334 333 333 332 331 331 330 329 329 329 329 329 329 328 328 328 328 327 327 328 328 328 328 328 328 328 327 327 327 326 326 325 324 324 323 322 321 321 320 320 319 319 319 319 318
340 340 341 341 341 340 340 340 340 340 339 339 339 339 339 338 338 337 336 336 335 335 335 335 334 333 333 333 333 333 333 332 332 332 332 331 330 330 330 330 329 329 328 328 329 329 328 328 328 328 328 328 328 328 328 327 327 327 327 327 326 325 325 324 323 322 322 321 321 320 320 320 320 319
341 341 341 341 341 341 341 340 339 340 340 340 340 339 339 339 338 337 336 336 336 336 335 335 334 334 333 333 333 332 332 332 332 332 332 332 331 331 331 330 330 330 329 329 329 330 330 329 329 329 329 329 329 328 329 328 328 328 327 327 326 326 326 325 324 324 324 323 323 322 321 321 322 322
341 341 341 341 340 340 340 339 339 339 339 340 340 339 338 339 338 337 337 337 337 336 336 336 335 334 334 334 333 333 332 332 332 332 332 332 332 331 331 331 330 330 329 329 330 330 330 330 330 329 329 329 329 329 329 329 329 328 327 327 327 326 326 326 326 325 325 325 325 324 323 323 323 324
341 341 341 340 339 338 338 338 338 338 338 339 339 338 338 338 339 338 337 337 336 336 337 336 335 334 334 334 333 333 332 332 332 331 331 331 331 331 331 330 330 330 330 329 330 329 329 330 330 329 329 329 329 329 329 328 328 328 328 327 327 327 327 327 326 326 326 327 327 326 326 325 325 325
341 341 340 339 338 337 337 336 335 336 336 336 336 336 337 337 338 338 337 337 336 336 337 336 335 335 334 333 332 332 332 331 330 330 330 331 331 331 331 331 330 330 330 329 330 329 329 329 329 329 329 329 329 328 327 327 327 327 327 326 327 327 328 328 327 327 326 327 327 326 326 325 325 325
342 341 339 339 338 337 336 335 335 335 334 334 334 334 334 334 336 337 337 336 336 336 336 335 335 335 334 333 332 331 331 330 329 329 329 330 331 331 332 332 331 331 330 330 330 330 329 329 329 328 328 328 327 326 326 326 326 327 326 326 326 327 326 327 326 326 326 326 326 325 325 324 324 325
342 341 341 340 339 338 337 336 336 336 335 335 335 335 335 335 335 334 334 334 333 333 333 334 333 333 333 333 332 332 332 331 330 330 330 330 331 332 332 332 332 331 330 330 330 330 329 328 328 327 327 326 326 327 327 327 326 326 326 326 326 326 325 325 324 324 324 323 323 323 324 324 324 324
341 341 340 340 339 339 338 337 337 336 336 336 336 336 336 336 336 336 334 333 331 330 330 331 332 333 333 332 332 332 332 330 330 330 331 331 331 331 331 331 331 331 330 329 329 329 328 327 327 327 327 326 327 327 327 326 326 326 325 325 325 325 325 325 324 323 323 323 323 323 323 324 323 323
339 339 339 339 339 339 339 338 337 337 337 337 336 336 337 337 337 337 336 334 333 332 332 332 333 332 332 332 333 333 332 331 331 332 332 331 331 330 330 330 329 329 328 328 328 328 327 326 327 328 327 326 326 325 325 325 325 325 324 324 324 324 324 324 324 323 324 323 323 324 324 324 324 323
337 337 338 338 339 339 339 339 338 338 338 338 338 338 338 338 338 337 335 335 336 337 336 336 334 332 332 331 331 331 332 332 331 331 331 330 330 329 329 328 328 327 326 326 327 328 328 327 327 327 326 325 324 324 324 324 323 323 322 322 322 322 322 322 322 321 321 321 322 323 324 324 323 323
335 336 337 338 339 339 340 340 340 340 339 339 339 339 338 338 338 337 336 335 337 337 336 336 335 333 332 332 331 331 331 330 328 326 326 325 326 326 327 327 327 327 326 326 326 327 327 325 325 325 324 323 323 323 322 321 321 321 320 319 319 320 320 320 320 320 321 321 322 322 323 323 323 322
335 337 337 336 337 337 338 340 340 340 341 341 339 338 338 338 337 337 336 335 335 335 334 334 333 331 331 332 331 330 329 329 327 325 324 324 325 326 326 327 326 326 326 325 324 325 325 324 324 323 323 322 321 321 320 319 319 318 318 317 318 319 319 320 320 321 322 322 323 323 323 323 323 323
338 338 337 336 336 337 338 339 341 341 341 341 340 338 338 337 337 336 335 334 334 334 333 332 331 331 330 330 330 329 328 327 326 325 324 325 326 327 327 326 326 325 325 324 323 324 325 323 321 321 320 319 319 318 318 318 318 317 316 316 317 318 319 320 321 322 323 323 323 323 323 323 323 323
337 336 336 333 332 335 339 339 340 340 340 340 338 336 335 335 335 335 334 334 334 333 332 331 330 330 329 329 329 329 327 327 327 327 326 325 326 327 326 326 325 325 325 323 322 322 322 320 318 318 318 318 318 318 318 318 317 317 316 317 318 319 321 322 323 324 323 323 323 323 323 323 323 323
337 336 335 331 328 332 338 340 339 339 339 338 336 332 331 332 334 334 333 332 332 331 331 330 329 329 328 328 328 328 327 327 328 328 327 326 326 326 327 327 326 326 325 324 321 319 318 317 318 318 318 318 318 318 318 317 317 317 317 318 320 322 323 323 324 324 324 323 323 323 323 322 322 323
337 332 329 331 334 337 339 339 339 339 338 336 333 331 330 330 330 331 330 329 328 328 328 328 328 328 328 327 327 327 327 327 326 326 326 325 326 326 326 327 326 325 323 321 319 317 317 318 318 318 318 318 318 318 318 317 317 317 319 320 321 323 323 324 323 323 323 322 322 321 321 321 322 322
333 326 325 332 338 339 338 337 338 336 335 334 332 331 329 327 327 327 326 326 325 325 326 326 326 326 326 327 327 326 326 325 324 324 324 323 323 323 324 324 323 321 319 317 316 317 317 318 318 318 318 318 318 318 318 318 318 319 320 321 322 323 323 323 322 321 321 321 321 321 321 321 322 322
331 331 334 338 339 339 337 335 334 333 332 332 331 330 328 327 326 325 324 323 323 323 324 325 325 326 326 326 326 325 325 324 323 322 322 321 321 320 320 320 319 318 317 316 316 316 316 316 316 316 317 317 317 318 318 318 319 320 321 322 322 323 323 322 321 320 320 320 321 321 321 322 322 322
336 338 339 339 338 336 335 333 332 331 331 331 330 329 328 326 325 324 323 322 322 323 325 326 326 327 326 325 325 324 323 322 321 320 319 319 318 318 317 317 317 316 316 315 315 314 314 314 314 315 315 316 316 317 319 320 321 322 322 322 322 322 322 321 320 320 320 320 321 321 322 322 323 323
338 339 339 338 336 334 333 332 330 329 329 329 328 327 325 324 323 322 321 321 323 325 326 326 325 325 325 324 323 322 321 320 318 318 317 317 317 316 316 316 315 315 314 313 312 312 313 313 314 314 314 316 317 320 321 322 322 322 321 322 322 321 321 320 320 320 320 320 321 322 322 323 324 324
336 337 337 336 334 332 331 329 328 328 328 327 326 325 324 324 323 322 322 323 324 326 325 324 324 323 322 321 320 319 319 318 317 317 317 317 316 316 315 314 313 312 312 311 312 313 313 314 315 316 317 319 320 321 322 321 321 321 321 322 322 321 320 319 319 319 320 321 321 322 323 324 324 325
334 335 335 334 332 330 328 327 326 326 326 326 325 325 324 324 323 324 324 324 324 324 323 323 322 320 319 319 319 318 317 316 316 316 316 316 315 314 313 312 311 311 311 312 313 314 315 316 316 317 319 320 321 321 321 321 322 322 322 321 321 320 320 319 319 320 320 320 321 322 323 324 325 326
332 333 333 331 329 328 327 326 326 326 326 326 325 325 325 325 324 324 324 323 323 322 322 321 320 320 320 319 317 316 315 315 316 316 315 314 312 311 310 311 311 312 312 313 313 314 314 315 316 317 319 320 321 321 321 321 322 322 322 321 320 320 319 319 319 320 320 320 321 322 323 324 325 326
332 332 332 330 329 329 328 328 328 327 327 327 326 326 326 325 325 324 323 322 322 322 321 321 321 320 318 316 314 314 314 315 315 314 313 311 309 309 310 311 312 312 312 313 312 312 312 313 315 317 319 319 320 321 321 322 321 321 320 320 320 320 319 319 319 319 319 320 321 322 323 323 324 326
332 332 332 331 330 330 329 329 329 328 328 328 327 326 325 324 323 323 322 321 321 319 319 319 318 317 315 314 313 314 313 313 313 312 310 309 309 310 311 312 312 311 311 312 311 310 311 313 315 317 318 319 319 320 321 321 320 320 319 319 319 319 319 319 319 319 319 320 320 322 322 322 323 326
330 329 329 329 328 327 327 328 329 328 328 328 326 325 324 323 323 322 321 320 319 318 317 317 316 315 314 313 313 312 312 312 311 309 308 309 309 310 310 310 311 311 310 310 310 310 311 312 315 318 320 320 320 320 320 320 319 319 319 319 318 319 318 318 318 318 318 319 320 321 322 322 324 327
327 328 328 327 328 328 327 327 327 326 326 326 325 324 323 322 321 320 319 319 318 317 316 315 314 313 312 312 312 312 311 310 309 308 308 309 309 309 309 310 310 310 309 309 309 309 310 311 315 319 321 320 320 320 320 319 319 319 319 318 318 318 318 318 318 318 318 319 319 320 321 322 325 328
325 327 327 327 327 327 327 326 325 325 324 323 323 322 320 319 318 318 318 318 316 315 314 314 313 312 312 311 311 310 309 308 307 308 309 309 308 309 309 310 309 309 309 309 309 309 310 312 316 321 321 321 320 320 320 319 318 318 319 318 318 318 317 318 318 317 317 318 319 319 320 321 324 329
327 326 326 326 326 325 325 324 323 323 322 321 320 319 318 318 318 317 316 315 314 313 313 312 312 311 310 309 308 308 307 307 308 308 308 308 308 309 309 309 309 309 309 309 309 309 311 314 318 320 321 321 321 321 320 320 319 319 318 318 318 318 317 317 317 317 317 318 318 318 318 319 322 327
324 324 325 325 324 323 323 322 321 321 320 319 319 318 318 317 317 316 314 313 312 311 311 311 311 309 308 307 307 307 307 308 308 308 308 308 308 309 308 308 309 309 309 309 309 310 311 315 318 319 319 320 320 320 320 321 320 319 318 317 317 317 316 316 316 316 317 317 317 317 317 318 321 327
323 323 323 323 322 322 322 321 321 320 319 319 318 318 317 316 316 315 314 312 311 310 310 309 309 308 307 307 307 308 307 307 307 307 307 308 308 308 308 309 309 309 309 309 309 310 313 316 318 318 318 318 318 319 320 321 320 319 317 316 316 316 315 315 315 316 317 316 316 316 315 317 322 329
323 322 322 322 322 322 321 320 320 319 318 318 317 317 316 315 315 314 313 312 310 309 309 308 308 308 308 308 307 307 307 307 307 307 307 307 307 308 308 309 309 309 309 309 309 311 315 317 317 317 318 318 319 320 321 320 319 318 316 316 315 314 314 314 314 315 316 316 316 315 314 316 324 332
322 322 322 321 321 321 320 319 318 317 317 317 316 315 315 315 314 312 311 311 310 310 310 310 309 308 308 307 307 307 307 307 306 306 307 307 307 308 309 309 308 308 308 309 311 313 315 315 315 316 318 318 319 320 320 319 318 317 316 315 314 313 313 313 313 314 314 314 314 314 313 314 322 332
321 321 320 320 320 320 319 318 317 316 316 315 315 314 314 313 313 311 310 311 311 311 310 309 308 307 306 307 307 306 306 306 306 306 306 306 307 308 309 308 308 308 308 309 312 314 314 314 315 316 318 318 318 320 320 318 317 317 316 314 313 312 312 312 312 312 313 313 313 313 313 313 317 324
321 320 320 320 319 319 318 317 316 315 315 314 314 314 313 311 311 310 310 310 310 309 308 307 306 306 306 306 306 305 305 305 305 306 306 306 307 308 308 308 308 308 308 310 312 313 313 313 314 316 318 318 318 319 319 318 317 316 315 313 312 311 312 312 311 311 313 313 312 313 314 315 316 320
320 319 319 319 318 318 318 316 315 314 314 313 313 312 311 310 310 309 309 309 308 307 306 306 306 306 306 305 304 304 305 305 306 305 305 306 307 308 308 308 308 308 309 310 310 311 311 312 314 316 317 317 318 318 318 317 316 315 314 312 310 310 311 311 311 311 311 312 312 313 314 314 316 320
Wind_Speed
11 10 10 10 9 8 7 7 7 7 7 8 8 8 8 6 3 2 3 3 5 8 8 7 7 7 7 9 9 11 12 13 13 14 15 15 14 14 15 15 15 15 16 17 18 20 20 20 19 19 18 18 16 15 13 13 13 13 14 14 15 15 15 15 16 16 17 18 19 21 23 26 27 27
11 10 10 10 10 9 9 8 9 9 9 10 10 10 10 9 7 5 3 4 7 10 10 8 6 6 7 9 9 11 12 12 13 14 15 15 15 15 16 17 18 18 18 18 18 19 19 18 18 18 18 19 18 17 16 15 15 15 14 14 14 14 14 14 15 15 16 16 17 18 19 22 25 27
11 11 11 10 10 9 9 9 10 10 10 10 11 11 11 11 11 10 6 4 6 10 11 10 9 8 10 11 11 12 13 13 14 15 15 15 15 16 18 18 19 18 16 16 16 16 17 17 17 17 17 17 18 19 20 19 19 18 17 15 14 14 14 14 14 15 15 16 17 17 17 19 21 24
12 13 12 11 11 10 10 11 11 11 11 11 11 11 12 12 11 12 10 6 7 11 12 13 13 11 11 12 12 12 13 13 15 16 16 16 16 17 18 18 17 16 17 18 18 17 16 16 17 18 18 19 21 23 24 24 23 22 20 19 17 15 15 15 14 15 15 16 16 17 17 18 19 21
13 12 11 11 11 11 11 11 11 11 11 11 12 12 12 12 12 12 13 10 9 11 12 13 13 12 12 13 13 13 13 14 15 16 15 15 16 17 18 18 17 17 18 18 17 16 16 18 19 20 21 22 23 24 24 24 24 24 23 22 20 19 17 16 16 16 16 16 16 16 17 17 18 19
13 12 12 12 12 12 12 12 11 12 12 12 13 13 12 13 13 13 13 12 10 10 12 12 13 12 12 12 13 12 13 14 15 14 14 15 17 17 16 17 18 18 17 17 18 19 20 22 23 23 23 23 23 22 22 22 22 23 23 24 24 22 21 20 19 18 17 16 15 14 15 16 16 18
14 13 13 13 13 13 12 12 12 12 13 13 13 13 13 14 14 13 13 13 11 12 13 12 12 12 11 12 13 13 14 15 15 15 16 17 16 15 16 18 19 20 20 20 21 22 22 23 24 24 25 24 23 23 22 22 22 22 22 23 25 25 25 24 23 22 20 18 16 15 14 14 15 15
16 15 15 15 14 14 13 13 13 13 14 14 14 14 14 15 15 14 14 14 13 13 14 14 13 13 13 15 15 14 15 16 16 17 18 18 18 19 20 20 21 21 21 21 22 23 23 22 23 24 25 24 24 24 24 25 24 23 22 22 23 25 26 26 26 26 25 22 20 17 15 15 15 15
17 17 17 17 15 15 15 15 15 15 15 15 15 15 15 15 15 15 15 15 15 15 15 16 16 15 15 16 16 15 16 16 16 17 18 18 18 19 20 20 21 23 23 23 23 23 21 21 23 23 23 23 23 25 26 26 27 27 27 25 24 24 26 27 27 27 27 26 24 21 18 16 16 16
17 17 17 16 16 16 16 16 16 16 15 16 16 16 15 15 15 16 16 16 15 16 16 17 17 17 16 17 17 16 15 16 16 16 17 18 18 18 20 21 22 23 23 23 23 22 22 24 25 25 25 25 26 28 28 28 29 30 31 31 29 27 28 27 27 27 28 28 27 25 22 19 18 18
18 18 17 17 18 18 18 18 18 17 17 17 17 17 16 17 17 17 17 17 16 16 16 17 17 17 16 16 17 16 15 15 16 17 17 18 20 21 21 22 22 21 22 23 24 24 25 26 26 27 28 28 28 29 28 28 29 30 30 31 31 31 31 30 30 31 31 30 29 28 26 23 21 21
18 18 18 18 19 19 19 20 20 19 18 17 17 17 17 18 18 17 17 16 16 15 15 15 15 16 16 17 17 17 17 16 16 16 17 18 20 20 19 19 20 21 23 23 24 24 25 25 26 26 27 27 28 28 28 29 29 29 29 30 32 33 33 33 33 32 31 30 28 27 28 28 26 25
18 18 17 18 18 19 19 20 21 21 20 19 19 18 17 17 18 17 17 17 16 15 14 14 14 14 15 17 17 18 17 16 16 16 16 18 19 19 19 19 20 21 22 23 24 25 25 25 25 26 27 28 28 28 29 30 30 30 30 31 33 33 33 33 33 32 30 28 27 27 29 31 31 31
17 17 17 17 17 18 18 19 19 20 21 21 22 21 20 19 17 16 16 17 17 16 15 15 15 14 15 17 17 17 17 16 16 16 16 17 17 16 17 18 20 20 21 23 24 24 23 23 25 26 27 28 28 30 31 31 30 31 31 32 32 32 31 31 31 30 28 28 28 30 32 33 35 36
16 16 16 17 17 17 17 18 18 20 21 22 23 23 24 23 22 21 19 19 18 17 16 16 16 15 16 18 18 18 18 16 15 15 15 16 16 15 14 15 16 17 18 20 23 23 23 24 26 28 29 30 32 33 33 31 30 30 31 32 32 32 32 33 32 31 31 31 33 35 35 36 38 39
16 16 16 16 16 16 16 16 16 18 19 20 21 22 23 24 25 25 26 25 23 21 19 18 18 19 19 19 19 18 17 15 14 14 15 15 16 16 16 16 17 17 17 19 22 25 25 26 29 31 31 31 31 31 30 29 28 29 30 32 32 32 32 32 33 33 34 35 36 36 36 37 39 41
16 16 17 17 17 16 15 14 15 16 16 16 18 19 20 22 24 25 27 27 27 26 25 23 23 23 22 21 20 18 17 16 15 15 16 17 18 19 19 19 19 20 20 21 24 27 28 28 29 30 29 28 28 28 28 28 28 29 30 32 33 35 35 34 35 36 37 37 38 38 38 39 40 41
15 15 15 16 17 16 15 15 16 16 16 16 17 18 19 21 23 25 26 27 27 28 28 28 28 27 24 21 19 17 16 17 17 16 17 18 19 21 21 22 24 26 27 27 26 26 27 28 27 27 27 28 28 28 28 28 28 28 28 29 31 32 34 35 36 38 39 40 41 41 41 41 41 42
15 15 15 17 17 17 16 16 16 17 17 17 17 18 20 21 21 22 24 25 25 26 26 26 27 27 26 25 23 21 19 19 17 16 17 18 20 23 24 25 26 28 28 27 24 23 25 26 25 25 26 27 28 28 27 26 26 26 27 29 31 32 34 36 38 39 40 40 40 41 42 43 43 43
17 17 17 18 18 18 19 18 18 18 18 18 17 17 19 20 19 21 23 23 23 25 25 23 24 25 24 24 24 23 21 19 19 18 19 20 20 21 21 21 22 23 22 21 22 23 24 25 24 26 27 27 27 27 26 26 27 27 29 31 32 34 35 36 38 39 40 40 40 41 42 42 43 43
16 13 13 15 17 19 20 19 18 18 18 18 17 16 16 16 17 20 20 20 19 19 19 19 21 22 22 23 23 22 20 20 21 20 19 20 19 18 15 14 17 19 18 19 23 24 25 26 26 26 25 23 23 23 24 26 27 28 30 32 32 33 34 36 38 38 39 39 39 39 40 40 40 41
13 12 13 14 18 22 23 21 21 20 18 18 18 17 15 14 15 16 15 14 13 11 11 13 16 18 20 22 23 22 21 21 21 21 22 22 19 16 14 14 16 18 19 23 26 24 23 23 21 21 21 21 22 23 24 26 28 29 31 32 33 34 35 36 37 37 37 37 38 39 39 40 41 42
13 14 13 12 17 24 26 24 23 21 20 20 18 16 14 12 12 12 10 8 7 7 10 12 14 15 16 18 19 19 20 20 20 23 25 24 21 18 17 19 16 12 15 22 22 18 16 17 18 19 18 15 18 23 24 25 28 31 33 34 33 34 34 36 36 36 36 37 38 40 41 42 43 45
15 12 11 13 20 25 26 25 24 22 20 20 18 15 12 11 11 11 10 9 8 9 12 12 13 14 15 16 17 19 19 19 19 21 23 23 23 22 22 22 19 14 16 20 20 19 20 20 21 23 19 13 15 22 26 27 30 32 33 32 32 33 34 33 33 34 35 37 39 41 43 45 46 47
13 11 13 19 23 24 22 22 21 19 18 17 16 14 13 13 13 14 14 14 12 12 13 13 14 15 15 16 16 17 17 17 17 19 20 20 22 23 23 25 22 18 19 21 23 25 26 23 22 23 22 19 20 24 28 30 31 32 30 30 32 33 33 32 33 35 36 38 41 43 45 47 47 47
16 16 18 20 20 19 18 16 16 16 16 16 15 15 14 13 14 14 15 14 13 12 12 13 14 14 15 16 15 15 15 15 15 15 14 15 17 19 20 21 18 17 21 24 26 26 24 22 22 22 22 21 22 25 26 27 30 30 29 30 33 34 33 34 35 36 37 39 41 43 44 46 46 47
19 18 17 18 19 18 15 14 14 14 15 15 15 14 13 13 13 13 13 12 11 11 12 13 14 14 14 14 14 14 14 14 13 13 13 15 18 19 21 22 23 25 27 27 26 25 24 24 25 24 24 23 22 21 20 23 27 29 30 33 35 33 32 34 35 37 38 40 42 43 44 46 46 47
16 15 16 17 18 15 13 12 13 13 14 14 14 13 13 13 13 13 12 11 10 11 12 12 12 13 13 14 14 14 13 13 14 15 16 17 19 20 22 23 24 25 25 24 25 26 27 27 27 27 28 27 23 18 17 22 26 29 31 33 33 32 33 35 36 38 40 40 42 43 42 43 43 44
14 14 16 16 14 12 12 12 12 12 13 12 12 12 12 12 12 12 11 10 10 10 10 11 11 12 13 13 13 13 14 15 17 19 19 19 20 20 19 20 21 23 24 26 27 27 27 27 29 31 31 28 24 21 21 23 26 29 30 30 31 34 37 36 35 37 39 40 41 42 41 41 42 41
17 16 16 15 14 13 13 13 12 11 10 10 9 9 9 9 9 9 9 8 8 7 8 10 11 12 13 14 14 15 16 18 19 20 19 19 19 18 18 20 23 25 26 26 26 26 27 28 30 30 28 24 22 24 25 25 25 28 30 30 30 33 36 36 35 37 39 40 42 42 42 42 42 42
18 18 18 17 16 14 12 11 9 8 7 8 8 7 6 6 6 6 7 6 6 7 9 10 11 13 14 15 14 13 14 16 18 17 17 17 17 18 19 21 23 24 25 25 25 25 26 26 26 26 24 22 23 26 28 26 25 27 31 32 30 31 35 37 37 37 39 40 41 43 43 42 42 43
16 17 18 17 14 13 12 8 5 5 6 7 7 6 6 7 6 6 7 7 8 9 11 12 14 14 13 12 12 13 15 16 17 16 16 17 18 19 20 20 21 23 24 24 24 23 23 24 25 24 23 22 24 28 29 26 25 28 32 34 33 33 36 39 38 38 40 40 39 41 41 40 41 41
14 16 17 17 16 15 14 10 7 6 7 8 8 8 8 9 8 7 8 10 11 11 13 15 15 11 9 11 12 14 15 16 16 16 16 17 19 21 21 20 20 21 22 22 22 24 25 26 26 24 23 24 27 28 26 23 26 31 34 34 34 34 36 38 38 39 39 37 36 38 39 40 41 39
13 13 14 15 14 14 12 10 8 8 9 10 10 9 8 8 8 8 8 9 9 9 10 10 8 7 9 12 13 13 14 15 16 16 16 18 20 20 19 18 19 20 20 21 23 24 26 27 26 25 26 27 28 27 23 23 27 31 33 33 33 34 36 38 38 38 38 36 35 35 36 39 41 37
11 10 12 12 11 11 11 9 8 9 9 9 9 8 9 10 9 8 8 9 8 8 7 7 8 9 11 12 13 14 15 15 15 16 17 18 18 18 18 18 19 20 20 21 22 24 25 27 27 25 23 23 23 22 21 21 23 25 29 32 33 33 34 36 37 38 37 36 34 31 30 33 37 35
9 10 11 11 10 10 9 7 5 5 5 6 8 9 9 8 5 5 7 7 5 4 6 8 9 11 11 12 14 14 14 14 15 16 17 17 17 18 18 17 18 20 21 21 23 25 27 28 26 19 13 12 12 13 16 21 22 22 25 30 32 33 35 37 38 37 35 34 33 29 26 28 32 32
8 9 10 10 9 8 6 6 4 3 5 6 6 5 2 2 5 7 6 4 4 5 7 8 8 8 10 12 13 13 13 14 15 17 17 16 17 17 16 16 18 20 21 22 24 26 27 26 21 13 9 8 8 8 16 26 31 30 29 29 31 34 37 37 36 35 34 33 31 29 29 30 32 32
7 7 9 9 7 5 4 3 1 2 2 1 1 3 4 4 6 6 5 6 6 8 8 7 7 9 11 13 14 14 14 15 16 16 15 16 17 16 15 16 18 19 21 24 24 25 25 22 17 14 11 8 7 8 13 21 29 36 37 33 31 34 36 35 33 34 35 35 31 31 34 34 34 33
6 6 7 7 4 4 4 4 5 5 6 5 4 4 5 6 7 7 6 6 7 9 9 9 9 11 13 14 13 13 14 14 14 15 16 16 16 16 16 17 18 20 22 22 22 23 24 20 18 18 16 14 14 17 20 21 27 36 40 35 31 32 34 35 34 33 35 35 33 35 41 39 33 27
6 5 5 5 5 5 5 5 3 2 3 3 3 4 5 8 11 11 5 2 6 10 12 11 11 12 13 13 12 12 13 13 14 15 16 16 16 17 18 19 19 20 19 19 20 23 22 19 20 23 23 23 25 28 28 26 27 33 37 36 33 32 34 35 35 34 35 35 32 33 36 35 27 18
6 5 3 3 4 3 2 2 3 3 3 4 6 6 6 8 11 8 4 3 7 12 12 11 10 11 11 11 11 11 12 13 14 15 15 16 17 18 19 19 19 18 17 17 20 21 20 21 26 27 26 26 28 26 20 16 17 25 34 37 37 36 35 35 34 33 33 33 31 29 28 26 21 14
5 3 3 1 1 2 2 2 3 4 5 5 6 7 7 9 9 6 4 6 8 9 10 11 10 9 10 10 11 11 12 13 14 15 16 17 18 18 17 18 18 17 17 18 20 21 22 25 27 27 25 25 23 18 12 10 14 22 30 35 38 39 38 38 36 32 28 28 30 29 23 18 13 7
2 2 2 1 1 2 2 2 2 3 5 6 8 10 11 11 9 7 6 7 8 8 9 9 8 8 9 10 10 11 12 13 14 16 17 18 17 17 17 18 18 18 19 20 21 22 24 26 26 24 23 22 20 15 13 16 20 24 28 32 37 40 40 40 39 34 28 27 30 30 20 10 10 7
1 2 1 1 2 3 4 4 4 4 6 7 8 10 10 8 8 8 9 9 9 8 7 7 7 8 9 9 10 11 12 13 15 17 17 17 17 17 18 18 19 20 20 21 21 22 25 26 25 22 20 19 18 16 16 19 22 24 27 31 35 37 37 38 39 38 33 31 35 36 30 15 3 8
3 3 2 3 4 4 4 5 5 5 6 8 10 9 8 7 8 9 9 9 9 8 6 6 7 8 8 9 10 11 12 14 15 15 16 17 17 17 17 19 20 20 19 20 21 22 25 26 24 20 19 18 18 17 18 21 24 25 27 29 32 34 33 34 35 34 32 33 37 38 37 33 23 11
Wind_Direction
233 231 230 227 231 239 237 234 237 237 232 234 238 235 237 245 252 285 287 276 283 282 287 291 260 245 264 269 266 271 273 275 277 275 278 283 284 285 286 286 286 284 282 283 284 284 286 287 285 282 284 288 294 300 301 301 302 305 306 305 304 302 298 293 288 285 282 280 276 271 267 264 263 262
233 233 231 228 227 231 234 233 233 233 232 232 233 233 236 240 240 250 268 275 283 284 289 293 263 245 278 289 280 277 278 280 281 280 280 281 281 282 282 282 282 282 284 287 289 289 289 289 287 285 283 284 287 292 295 293 291 292 295 298 299 299 299 296 292 290 287 284 282 278 274 270 266 263
232 234 231 231 231 230 232 234 235 235 234 233 234 235 237 237 238 244 255 267 269 274 284 288 281 276 286 286 276 271 272 274 276 276 277 277 277 278 279 283 285 287 291 294 293 293 292 292 292 290 288 286 288 291 293 293 289 284 283 287 291 293 294 295 294 292 290 287 285 282 279 275 271 267
229 230 229 231 233 233 235 238 239 240 240 239 239 239 238 237 237 242 245 251 263 269 276 283 284 283 282 281 277 271 271 273 275 274 273 275 280 283 284 286 287 291 294 291 288 288 290 291 289 287 286 287 290 294 295 294 291 284 278 276 280 285 287 290 292 292 291 289 288 285 282 280 276 272
227 227 225 230 233 235 237 238 240 243 245 244 243 242 240 238 240 240 239 243 260 269 272 276 278 278 278 279 276 272 269 270 273 271 270 278 289 290 286 283 284 287 289 288 288 289 289 290 288 286 287 288 291 295 296 294 290 285 278 273 273 276 279 283 286 288 290 290 289 289 287 284 281 278
225 228 229 232 235 237 240 241 243 246 247 246 245 244 242 242 243 244 244 247 258 271 274 276 279 278 275 274 276 274 271 272 274 269 267 281 293 292 284 281 283 284 285 286 289 290 289 288 287 286 287 288 291 294 295 293 290 286 281 275 273 273 275 278 281 284 287 287 287 291 292 292 289 285
222 227 230 233 237 239 241 244 246 248 251 251 249 248 249 250 249 250 250 252 260 272 277 278 280 281 278 275 277 279 276 276 277 274 275 284 289 287 281 281 282 282 282 281 283 287 288 286 286 287 287 287 289 291 292 291 291 289 285 280 277 275 274 275 276 279 282 281 281 286 292 297 299 297
221 225 229 234 237 239 241 245 248 249 251 253 252 252 252 253 253 253 253 256 260 267 274 276 275 276 278 278 278 276 276 275 274 275 277 278 277 278 279 279 280 281 283 283 285 288 288 287 287 288 287 286 287 289 290 289 289 288 287 285 281 278 277 275 274 276 278 277 275 278 285 293 300 303
222 225 228 232 236 237 239 243 246 248 250 251 251 251 251 250 252 252 251 254 256 257 264 272 276 278 279 279 278 275 271 268 269 274 276 274 273 276 278 276 275 276 278 280 285 289 289 288 289 288 286 285 285 286 287 287 287 287 286 285 282 280 281 279 276 275 275 274 273 272 276 286 295 302
225 227 230 233 237 239 241 242 244 247 249 250 248 248 249 249 250 250 249 251 253 253 258 268 276 279 279 279 279 276 270 265 265 269 273 274 273 274 277 277 276 277 277 275 279 285 284 284 285 285 284 282 281 282 282 282 284 285 285 283 279 279 281 281 279 278 277 275 273 268 268 277 288 298
226 230 232 236 239 239 241 243 245 248 249 251 250 249 249 249 248 249 250 251 252 253 256 261 267 274 279 279 278 279 277 271 267 266 267 269 271 272 273 274 275 278 278 276 276 278 279 281 282 282 281 280 280 280 279 279 281 282 281 280 276 274 276 277 279 280 279 278 274 266 263 269 279 290
225 229 233 237 239 240 241 243 244 245 246 248 251 251 251 249 247 246 248 250 251 254 257 259 264 272 278 278 278 281 278 270 268 267 262 260 266 270 270 271 275 278 278 278 278 278 279 280 280 280 279 278 279 278 278 278 279 278 277 277 275 273 273 274 276 278 279 279 275 266 262 265 272 281
225 231 234 237 241 241 243 245 245 244 243 243 247 250 250 249 247 245 246 248 251 254 257 260 265 271 273 273 275 275 271 267 270 274 269 265 268 272 273 274 277 279 280 278 277 278 279 278 278 278 277 277 277 278 279 279 279 278 278 278 277 275 274 274 275 274 273 272 270 267 266 268 271 277
227 234 237 240 243 243 244 248 250 249 247 247 249 251 252 251 248 245 246 248 249 251 254 258 262 262 263 265 268 269 271 274 277 279 278 277 279 282 282 281 281 281 280 279 276 275 276 277 277 276 275 276 277 279 280 280 279 279 279 279 279 278 277 277 276 272 268 267 269 271 273 274 275 277
229 236 241 244 246 247 248 252 255 255 254 253 254 257 258 258 255 252 252 253 252 251 252 255 255 254 257 261 263 267 271 274 277 280 284 286 289 290 287 284 285 284 281 279 279 278 277 277 278 278 278 279 280 281 281 280 279 278 276 276 276 277 277 277 276 273 270 270 273 275 275 275 276 277
231 236 241 246 248 250 251 254 258 259 256 255 256 258 262 264 264 262 260 259 256 254 255 258 257 257 260 262 262 262 265 269 274 281 284 285 286 285 281 278 280 284 284 283 282 281 280 281 280 280 281 283 283 282 282 281 279 276 276 276 275 274 273 272 273 273 273 273 273 272 272 274 276 277
230 235 239 243 247 249 251 254 260 263 261 259 260 261 263 265 267 267 266 263 260 258 258 259 260 260 262 264 263 261 262 267 272 276 277 278 279 279 276 276 279 283 284 284 284 282 282 282 280 279 282 285 284 282 281 280 277 276 277 278 277 275 272 270 271 272 272 272 271 270 271 273 277 278
232 238 242 245 248 250 253 254 258 261 263 263 263 263 262 263 265 268 269 268 266 263 262 262 263 262 264 268 269 266 268 271 273 274 274 275 276 277 276 279 282 283 283 282 281 280 281 282 278 275 281 285 284 283 283 281 280 281 283 283 283 281 278 276 276 275 275 274 272 271 271 273 276 278
237 245 251 254 254 254 256 258 260 263 264 263 262 257 256 260 264 266 269 270 267 265 266 267 267 267 268 269 268 268 272 274 274 275 275 274 276 278 279 281 281 281 282 281 274 271 277 280 276 274 280 283 283 283 284 284 285 286 288 288 288 286 283 282 282 281 280 278 276 273 273 274 276 277
236 246 254 260 263 261 260 261 264 265 264 262 259 255 256 264 269 271 276 276 269 267 268 266 267 271 273 267 264 267 271 271 274 281 282 280 279 277 276 276 275 277 282 280 272 272 280 284 279 277 280 281 281 283 286 288 290 291 291 291 289 287 284 283 283 282 280 279 278 276 275 275 276 277
235 250 261 270 278 277 272 268 266 266 265 263 263 263 265 268 271 275 283 286 279 272 268 264 267 272 270 263 263 270 271 269 275 282 279 276 275 274 272 272 275 278 281 283 282 279 281 283 281 280 284 286 287 291 293 294 295 295 293 292 290 288 287 286 285 283 280 279 278 277 276 275 275 276
230 243 252 266 278 278 272 268 264 263 264 264 265 266 265 266 270 275 283 289 286 275 265 269 274 272 266 262 263 265 265 266 271 271 268 268 268 267 268 274 281 283 284 288 287 278 276 287 296 301 306 303 298 296 297 297 298 296 294 292 290 289 289 288 286 283 280 278 277 277 277 276 276 275
228 237 248 264 272 269 266 264 263 263 264 266 267 266 261 262 268 272 274 278 283 275 269 278 284 279 273 269 265 264 266 267 266 263 264 265 261 258 264 270 275 282 283 285 288 287 293 306 313 315 314 306 298 298 297 297 297 295 293 292 290 290 290 288 286 283 282 281 281 280 280 278 277 275
226 234 250 258 260 261 262 262 261 262 262 262 263 263 260 258 258 258 260 264 273 277 278 282 285 282 280 277 272 271 272 270 266 265 268 269 263 258 260 263 264 269 273 278 291 308 313 310 307 307 306 299 297 301 299 296 294 293 291 290 291 292 291 289 287 285 284 283 282 282 280 278 276 271
230 245 258 256 257 260 260 258 258 258 256 255 258 262 261 260 258 259 265 272 277 280 280 279 277 277 280 279 276 274 273 273 273 271 271 273 268 261 258 259 261 266 275 284 298 307 306 303 304 307 304 296 294 297 297 295 292 290 290 290 292 292 291 290 289 287 285 284 283 282 280 278 275 270
243 257 256 252 255 257 253 249 249 249 250 253 259 263 265 267 268 268 271 276 280 280 277 276 276 278 279 280 281 284 287 289 288 281 277 279 279 275 271 267 269 279 290 298 305 304 300 301 303 302 298 294 291 291 292 291 290 290 291 292 293 292 289 290 290 288 287 286 285 283 281 277 275 272
242 246 243 245 252 253 249 248 248 249 252 255 259 264 271 277 279 278 279 280 280 276 274 275 277 280 283 287 291 297 299 299 300 300 300 298 297 298 295 291 291 295 297 301 303 302 301 301 298 294 291 289 288 287 285 285 290 294 295 294 294 292 289 290 290 290 291 291 288 286 283 280 277 275
236 240 244 247 248 246 245 249 250 250 254 258 264 272 278 281 282 281 282 283 280 276 276 279 282 286 291 294 294 295 299 303 308 310 310 308 305 304 300 296 295 296 297 299 299 299 299 297 293 290 286 282 280 281 283 287 292 295 296 295 294 293 292 293 293 293 294 293 291 288 284 281 279 277
226 238 244 241 237 240 250 257 259 260 262 266 271 276 278 282 284 285 284 281 277 277 282 291 296 295 296 297 300 306 311 314 316 315 312 308 305 302 301 300 300 301 302 301 299 297 295 291 287 285 280 276 276 281 287 291 293 292 292 293 293 295 296 296 295 295 296 295 293 289 284 280 279 276
230 237 242 245 249 258 264 266 265 264 263 266 271 274 280 285 283 281 277 269 267 278 289 294 295 296 300 305 307 310 312 313 314 312 309 306 305 307 310 310 307 304 303 301 298 295 291 287 284 281 278 279 284 287 288 289 289 290 291 292 294 297 299 299 298 296 296 296 293 289 285 281 280 279
233 238 244 251 257 262 264 264 258 252 252 261 267 271 282 288 277 266 259 254 261 277 284 286 289 295 302 304 303 307 312 311 308 306 306 307 309 312 313 309 303 300 300 298 297 296 293 291 290 287 285 288 291 291 291 289 287 289 293 295 296 297 298 300 299 297 297 296 294 291 289 285 284 283
240 241 243 246 247 247 245 236 218 216 232 246 250 247 252 257 251 243 251 263 272 275 275 275 278 286 297 303 308 316 315 308 304 304 306 309 311 311 307 299 293 294 296 297 300 303 303 303 301 296 292 293 295 295 294 291 288 289 293 297 299 298 298 299 298 298 300 299 294 292 291 287 287 285
224 220 223 226 226 226 222 207 192 201 211 218 228 236 242 248 248 243 248 257 260 262 267 268 267 278 304 313 315 316 310 304 304 307 309 310 309 304 297 289 288 293 297 300 307 312 311 309 307 301 297 298 301 298 291 287 291 293 294 297 299 299 298 299 299 300 302 299 295 294 293 290 290 286
208 208 217 225 229 233 229 213 203 211 214 214 220 228 233 241 253 262 265 266 268 277 285 283 280 294 309 311 312 312 308 304 305 308 310 307 302 297 293 291 294 298 301 306 312 314 313 312 310 305 300 302 306 303 292 283 285 289 292 296 297 297 298 300 303 304 302 298 294 292 291 291 290 285
221 236 244 246 252 257 253 238 221 221 221 211 206 216 231 235 236 247 262 269 277 293 310 318 318 316 313 312 311 307 302 301 305 308 307 303 301 301 300 298 300 305 309 312 313 315 316 313 308 303 302 306 310 308 299 288 281 284 294 299 300 300 301 304 307 306 303 300 296 290 288 290 290 286
235 249 254 257 260 260 264 268 255 223 204 200 206 222 236 240 244 266 277 277 284 311 325 319 313 312 310 307 304 301 302 308 312 310 306 304 306 306 303 303 308 312 314 315 315 315 312 306 301 301 306 312 313 308 305 305 301 299 301 302 303 307 308 308 309 307 304 302 297 291 288 289 288 285
240 246 250 257 262 265 275 285 274 227 202 208 222 231 240 307 318 313 311 315 328 327 315 305 305 313 314 311 310 312 316 316 310 305 304 308 309 307 308 314 316 315 315 314 312 310 306 301 303 312 315 313 314 307 307 311 315 318 316 309 307 310 312 310 310 309 309 308 301 293 294 293 288 285
249 263 264 265 272 289 299 298 329 353 356 30 15 7 8 338 318 333 9 12 348 333 322 314 321 330 326 318 315 314 312 306 302 303 309 312 311 312 318 320 317 315 314 309 308 310 309 306 312 323 320 311 308 304 307 312 315 320 322 317 310 311 313 313 312 312 314 313 306 301 303 298 287 283
246 276 284 291 325 6 10 36 57 38 22 28 26 6 352 330 317 330 359 5 353 347 340 330 328 326 318 309 306 306 304 304 308 313 315 314 316 321 324 320 314 311 309 307 311 315 313 311 318 322 316 308 302 298 299 302 305 313 319 322 319 317 316 316 315 316 317 316 311 310 313 309 298 287
220 242 279 317 0 25 23 28 43 35 12 3 340 331 333 317 304 299 295 324 346 337 326 320 316 309 302 301 301 303 307 311 316 317 316 319 324 324 319 312 308 307 309 312 315 314 311 316 326 324 316 313 311 306 302 301 306 313 319 325 328 326 322 321 321 319 320 319 315 313 316 313 305 287
210 215 242 321 344 351 351 340 315 310 323 310 296 297 304 306 306 302 286 314 334 327 314 306 297 288 290 300 308 312 316 319 319 321 325 327 323 318 314 312 312 314 316 315 312 310 314 325 329 326 322 322 321 318 313 311 315 320 322 327 332 333 333 335 332 328 329 329 322 316 315 309 298 274
190 185 181 206 291 301 307 304 307 324 329 315 308 316 321 317 319 325 325 322 319 302 282 278 282 288 300 312 317 320 322 321 323 329 329 321 315 314 317 319 319 319 319 315 310 313 322 327 327 328 331 333 331 328 324 321 322 322 324 328 333 336 340 344 343 341 346 345 334 326 322 311 301 287
142 172 171 159 190 228 260 286 321 333 328 327 327 323 319 317 319 325 328 321 305 280 270 280 298 309 313 316 320 323 325 326 327 324 318 313 316 320 321 322 322 323 321 316 315 321 326 327 326 328 333 336 336 333 327 326 327 327 329 332 335 338 343 347 347 352 0 359 351 349 346 308 269 282
180 188 162 162 227 234 245 260 280 300 310 311 303 296 302 316 324 321 314 305 293 284 286 301 309 308 311 321 328 329 327 322 317 314 313 319 324 325 323 325 326 325 322 321 324 328 328 325 324 328 332 337 340 337 331 332 334 334 336 338 339 340 343 346 349 355 1 2 4 13 22 24 302 268
190 174 176 211 231 247 253 248 253 268 273 269 270 281 302 314 303 290 285 282 283 285 288 294 300 305 317 328 328 323 319 316 315 319 324 326 325 325 327 329 326 323 326 330 329 329 326 322 323 331 338 342 346 344 339 341 343 341 342 345 343 343 345 347 349 351 354 358 8 21 32 39 47 60